| time (UTC) | temp C | wind direction | speed KPH | gust KPH | rain 1hr cm | rain 24hr cm | rain mn cm | humidity % | barometer mb |
| 20260901140012 | 24 | 210 | 1.6 | 11.3 | 0.00 | 0.84 | 0.00 | 89 | 1012.4 |
| 20260901134508 | 23 | 293 | 0.0 | 8.0 | 0.00 | 0.84 | 0.00 | 92 | 1012.4 |
| 20260901133004 | 22 | 294 | 0.0 | 4.8 | 0.00 | 0.84 | 0.00 | 93 | 1012.5 |
| 20260901131600 | 22 | 247 | 0.0 | 3.2 | 0.00 | 0.84 | 0.00 | 93 | 1012.6 |
| 20260901130057 | 21 | 221 | 0.0 | 1.6 | 0.00 | 0.84 | 0.00 | 94 | 1012.4 |
| 20260901124556 | 21 | 221 | 0.0 | 4.8 | 0.00 | 0.84 | 0.00 | 94 | 1012.5 |
| 20260901123053 | 21 | 232 | 0.0 | 4.8 | 0.00 | 0.84 | 0.00 | 94 | 1012.5 |
| 20260901121549 | 20 | 232 | 1.6 | 4.8 | 0.00 | 0.84 | 0.00 | 94 | 1012.3 |
| 20260901120050 | 20 | 223 | 1.6 | 4.8 | 0.00 | 0.84 | 0.00 | 94 | 1012.3 |
| 20260901114544 | 20 | 247 | 0.0 | 3.2 | 0.00 | 0.91 | 0.00 | 94 | 1012.0 |
| 20260901113042 | 20 | 247 | 0.0 | 0.0 | 0.00 | 0.91 | 0.00 | 94 | 1011.9 |
| 20260901111539 | 19 | 247 | 0.0 | 0.0 | 0.00 | 0.91 | 0.00 | 93 | 1011.7 |
| 20260901110038 | 19 | 247 | 0.0 | 0.0 | 0.00 | 0.91 | 0.00 | 93 | 1011.5 |
| 20260901104541 | 19 | 253 | 0.0 | 1.6 | 0.00 | 1.24 | 0.00 | 93 | 1011.5 |
| 20260901103036 | 19 | 253 | 0.0 | 0.0 | 0.00 | 1.24 | 0.00 | 93 | 1011.2 |
| 20260901101546 | 19 | 253 | 0.0 | 1.6 | 0.00 | 1.24 | 0.00 | 93 | 1011.2 |
| 20260901100036 | 19 | 253 | 0.0 | 0.0 | 0.00 | 1.24 | 0.00 | 93 | 1011.2 |
| 20260901094539 | 19 | 253 | 0.0 | 0.0 | 0.00 | 1.32 | 0.00 | 93 | 1011.2 |
| 20260901093034 | 19 | 253 | 0.0 | 1.6 | 0.00 | 1.32 | 0.00 | 93 | 1011.2 |
| 20260901091534 | 19 | 253 | 0.0 | 0.0 | 0.00 | 1.32 | 0.00 | 93 | 1011.1 |
| 20260901090033 | 19 | 253 | 0.0 | 0.0 | 0.00 | 1.32 | 0.00 | 93 | 1011.1 |
| 20260901084532 | 19 | 253 | 0.0 | 0.0 | 0.00 | 1.32 | 0.00 | 92 | 1011.2 |
| 20260901083033 | 19 | 253 | 0.0 | 0.0 | 0.00 | 1.32 | 0.00 | 92 | 1010.9 |
| 20260901081532 | 19 | 253 | 0.0 | 0.0 | 0.00 | 1.32 | 0.00 | 92 | 1010.9 |
| 20260901080032 | 19 | 253 | 0.0 | 0.0 | 0.00 | 1.32 | 0.00 | 92 | 1010.8 |
| 20260901074542 | 19 | 253 | 0.0 | 0.0 | 0.00 | 1.32 | 0.00 | 92 | 1010.8 |
| 20260901073027 | 19 | 253 | 0.0 | 0.0 | 0.00 | 1.32 | 0.00 | 92 | 1010.9 |
| 20260901071527 | 19 | 253 | 0.0 | 3.2 | 0.00 | 1.32 | 0.00 | 92 | 1011.0 |
| 20260901070025 | 20 | 253 | 0.0 | 3.2 | 0.00 | 1.32 | 0.00 | 92 | 1011.0 |
| 20260901064524 | 20 | 252 | 0.0 | 0.0 | 0.00 | 1.32 | 0.00 | 91 | 1010.9 |
| 20260901063023 | 20 | 252 | 0.0 | 1.6 | 0.00 | 1.32 | 0.00 | 91 | 1010.9 |
| 20260901061521 | 20 | 219 | 1.6 | 4.8 | 0.00 | 1.32 | 0.00 | 91 | 1010.9 |
| 20260901060119 | 20 | 234 | 0.0 | 3.2 | 0.00 | 1.32 | 0.00 | 91 | 1011.1 |
| 20260901054519 | 20 | 260 | 0.0 | 4.8 | 0.00 | 1.35 | 0.00 | 91 | 1011.2 |
| 20260901053017 | 20 | 242 | 1.6 | 4.8 | 0.00 | 1.35 | 0.00 | 91 | 1011.3 |
| 20260901051527 | 20 | 215 | 1.6 | 6.4 | 0.00 | 1.35 | 0.00 | 91 | 1011.4 |
| 20260901050013 | 20 | 229 | 1.6 | 6.4 | 0.00 | 1.35 | 0.00 | 91 | 1011.3 |
| 20260901044511 | 20 | 219 | 1.6 | 4.8 | 0.00 | 1.35 | 0.00 | 90 | 1011.4 |
| 20260901043010 | 20 | 190 | 1.6 | 6.4 | 0.00 | 1.35 | 0.00 | 91 | 1011.4 |
| 20260901041513 | 20 | 217 | 0.0 | 3.2 | 0.00 | 1.35 | 0.00 | 90 | 1011.5 |
| 20260901040006 | 20 | 211 | 0.0 | 3.2 | 0.00 | 1.35 | 1.35 | 90 | 1011.6 |
| 20260901034506 | 20 | 253 | 0.0 | 4.8 | 0.00 | 1.35 | 1.35 | 90 | 1011.7 |
| 20260901033008 | 20 | 239 | 0.0 | 4.8 | 0.00 | 1.35 | 1.35 | 90 | 1011.4 |
| 20260901031505 | 20 | 232 | 1.6 | 6.4 | 0.00 | 1.35 | 1.35 | 90 | 1011.5 |
| 20260901030005 | 20 | 219 | 3.2 | 9.7 | 0.00 | 1.35 | 1.35 | 90 | 1011.6 |
| 20260901024505 | 20 | 182 | 4.8 | 9.7 | 0.00 | 1.35 | 1.35 | 90 | 1011.8 |
| 20260901023004 | 20 | 244 | 3.2 | 8.0 | 0.00 | 1.35 | 1.35 | 90 | 1011.8 |
| 20260901021503 | 20 | 215 | 3.2 | 9.7 | 0.00 | 1.35 | 1.35 | 90 | 1011.8 |
| 20260901020004 | 21 | 235 | 1.6 | 8.0 | 0.00 | 1.35 | 1.35 | 89 | 1011.8 |
| 20260901014504 | 21 | 217 | 1.6 | 4.8 | 0.00 | 1.35 | 1.35 | 89 | 1011.6 |
| 20260901013003 | 21 | 227 | 1.6 | 6.4 | 0.00 | 1.35 | 1.35 | 88 | 1011.6 |
| 20260901011500 | 21 | 165 | 1.6 | 4.8 | 0.00 | 1.35 | 1.35 | 87 | 1011.5 |
| 20260901010100 | 21 | 217 | 3.2 | 6.4 | 0.00 | 1.35 | 1.35 | 86 | 1011.4 |
| 20260901004600 | 22 | 209 | 1.6 | 8.0 | 0.00 | 1.35 | 1.35 | 86 | 1011.1 |
| 20260901003059 | 22 | 215 | 3.2 | 11.3 | 0.00 | 1.35 | 1.35 | 86 | 1011.0 |
| 20260901001605 | 22 | 186 | 3.2 | 12.9 | 0.00 | 1.35 | 1.35 | 86 | 1010.9 |
| 20260901000107 | 22 | 167 | 6.4 | 14.5 | 0.00 | 1.35 | 1.35 | 85 | 1010.9 |
| 20260831234618 | 22 | 192 | 8.0 | 17.7 | 0.00 | 1.35 | 1.35 | 84 | 1011.0 |
| 20260831233117 | 22 | 161 | 6.4 | 17.7 | 0.00 | 1.35 | 1.35 | 84 | 1011.2 |
| 20260831231554 | 23 | 161 | 9.7 | 19.3 | 0.00 | 1.35 | 1.35 | 83 | 1011.5 |
| 20260831230053 | 23 | 151 | 8.0 | 16.1 | 0.00 | 1.35 | 1.35 | 81 | 1011.7 |
| 20260831224550 | 23 | 167 | 8.0 | 19.3 | 0.00 | 1.35 | 1.35 | 80 | 1011.7 |
| 20260831223050 | 23 | 189 | 4.8 | 12.9 | 0.00 | 1.35 | 1.35 | 80 | 1012.2 |
| 20260831221546 | 23 | 199 | 3.2 | 9.7 | 0.00 | 1.35 | 1.35 | 84 | 1012.3 |
| 20260831220044 | 23 | 163 | 4.8 | 12.9 | 0.00 | 1.35 | 1.35 | 84 | 1012.3 |
| 20260831214543 | 22 | 140 | 4.8 | 12.9 | 0.00 | 1.40 | 1.35 | 85 | 1012.4 |
| 20260831213040 | 22 | 163 | 6.4 | 14.5 | 0.00 | 1.40 | 1.35 | 86 | 1012.4 |
| 20260831211539 | 22 | 159 | 8.0 | 11.3 | 0.00 | 1.40 | 1.35 | 85 | 1012.4 |
| 20260831210043 | 21 | 131 | 3.2 | 9.7 | 0.00 | 1.40 | 1.35 | 87 | 1012.6 |
| 20260831204538 | 21 | 10 | 9.7 | 14.5 | 0.00 | 1.68 | 1.35 | 86 | 1012.8 |
| 20260831203038 | 21 | 107 | 1.6 | 4.8 | 0.00 | 1.68 | 1.35 | 86 | 1012.4 |
| 20260831201545 | 21 | 109 | 1.6 | 3.2 | 0.00 | 1.68 | 1.35 | 86 | 1012.7 |
| 20260831200037 | 21 | 159 | 1.6 | 8.0 | 0.00 | 1.68 | 1.35 | 87 | 1012.4 |
| 20260831194536 | 21 | 159 | 1.6 | 9.7 | 0.03 | 1.68 | 1.35 | 89 | 1012.4 |
| 20260831193035 | 20 | 139 | 3.2 | 14.5 | 0.03 | 1.68 | 1.35 | 90 | 1012.0 |
| 20260831191532 | 20 | 168 | 3.2 | 17.7 | 0.03 | 1.68 | 1.35 | 90 | 1012.5 |
| 20260831190032 | 21 | 188 | 8.0 | 16.1 | 0.00 | 1.65 | 1.32 | 91 | 1012.7 |
| 20260831184529 | 21 | 184 | 4.8 | 16.1 | 0.00 | 1.65 | 1.32 | 91 | 1012.9 |
| 20260831183031 | 21 | 193 | 3.2 | 16.1 | 0.08 | 1.65 | 1.32 | 92 | 1013.3 |
| 20260831181526 | 21 | 189 | 4.8 | 9.7 | 0.13 | 1.65 | 1.32 | 92 | 1013.7 |
| 20260831180026 | 21 | 138 | 0.0 | 4.8 | 0.13 | 1.65 | 1.32 | 92 | 1014.4 |
| 20260831174525 | 21 | 203 | 0.0 | 3.2 | 0.13 | 1.65 | 1.32 | 92 | 1014.9 |
| 20260831173024 | 21 | 295 | 0.0 | 3.2 | 0.05 | 1.57 | 1.24 | 91 | 1015.3 |
| 20260831171526 | 22 | 290 | 1.6 | 4.8 | 0.00 | 1.52 | 1.19 | 91 | 1015.6 |
| 20260831170029 | 22 | 232 | 1.6 | 8.0 | 0.03 | 1.52 | 1.19 | 91 | 1015.2 |
| 20260831164522 | 22 | 244 | 1.6 | 6.4 | 0.08 | 1.57 | 1.19 | 93 | 1015.2 |
| 20260831163018 | 21 | 167 | 0.0 | 3.2 | 0.08 | 1.57 | 1.19 | 93 | 1015.1 |
| 20260831161517 | 20 | 200 | 0.0 | 0.0 | 0.08 | 1.57 | 1.19 | 93 | 1015.0 |
| 20260831160013 | 20 | 253 | 0.0 | 1.6 | 0.23 | 1.63 | 1.17 | 93 | 1015.0 |
| 20260831154510 | 20 | 253 | 0.0 | 4.8 | 0.58 | 1.57 | 1.12 | 93 | 1015.4 |
| 20260831153008 | 20 | 278 | 1.6 | 11.3 | 0.58 | 1.57 | 1.12 | 93 | 1015.8 |
| 20260831151515 | 20 | 306 | 1.6 | 14.5 | 0.61 | 1.57 | 1.12 | 93 | 1015.5 |
| 20260831150007 | 20 | 279 | 8.0 | 20.9 | 0.41 | 1.42 | 0.91 | 93 | 1015.7 |
| 20260831144504 | 20 | 253 | 1.6 | 6.4 | 0.03 | 1.07 | 0.53 | 93 | 1015.4 |
| 20260831143117 | 20 | 223 | 0.0 | 0.0 | 0.03 | 1.07 | 0.53 | 93 | 1014.7 |
| 20260831141607 | 20 | 223 | 0.0 | 0.0 | 0.00 | 1.04 | 0.51 | 93 | 1014.5 |